Location: Black Swamp Observatory
(41.3920°N, 84.1250°W)
Time: 22:14:02
(UTC-05:00)

Transit 4A - All Passes

Search period start: 27 January 2022 00:00
Search period end: 06 February 2022 00:00
Orbit: 863 x 981 km, 66.8° (Epoch: 27 January)

Date Brightness Start Highest point End Pass type
(mag) Time Alt. Az. Time Alt. Az. Time Alt. Az.
27 Jan - 05:39:48 10° SE 05:42:19 13° E 05:44:51 10° ENE visible
27 Jan - 07:21:38 10° SSW 07:27:40 87° ESE 07:33:54 10° NNE visible
27 Jan - 09:10:27 10° W 09:14:53 20° NW 09:19:24 10° N daylight
27 Jan - 14:38:50 10° N 14:43:35 21° NE 14:48:19 10° E daylight
27 Jan - 16:24:21 10° NNW 16:30:48 87° WSW 16:37:12 10° SSE daylight
27 Jan - 18:13:06 10° WNW 18:16:14 14° W 18:19:22 10° SW visible
28 Jan - 05:47:00 10° SSE 05:51:15 20° ESE 05:55:35 10° ENE visible
28 Jan - 07:30:59 10° SW 07:36:58 66° WNW 07:43:11 10° NNE daylight
28 Jan - 09:21:07 10° WNW 09:24:37 15° NW 09:28:12 10° N daylight
28 Jan - 14:47:48 10° NNW 14:53:14 28° NE 14:58:39 10° ESE daylight
28 Jan - 16:33:44 10° NW 16:40:03 61° WSW 16:46:19 10° SSE daylight
29 Jan - 05:55:07 10° SSE 06:00:15 31° ESE 06:05:34 10° NE visible
29 Jan - 07:40:36 10° SW 07:46:22 46° NW 07:52:22 10° NNE daylight
29 Jan - 09:32:19 10° NW 09:34:29 12° NNW 09:36:39 10° N daylight
29 Jan - 13:13:27 10° NNE 13:14:27 10° NNE 13:15:26 10° NE daylight
29 Jan - 14:56:51 10° NNW 15:02:47 38° NE 15:08:42 10° ESE daylight
29 Jan - 16:43:15 10° NW 16:49:12 42° WSW 16:55:08 10° S daylight
30 Jan - 06:03:40 10° S 06:09:21 46° ESE 06:15:14 10° NE visible
30 Jan - 07:50:27 10° WSW 07:55:53 33° NW 08:01:28 10° NNE daylight
30 Jan - 13:21:18 10° N 13:24:21 14° NNE 13:27:24 10° ENE daylight
30 Jan - 15:05:59 10° NNW 15:12:15 53° NE 15:18:30 10° SE daylight
30 Jan - 16:52:59 10° NW 16:58:18 28° WSW 17:03:35 10° SSW daylight
31 Jan - 06:12:34 10° SSW 06:18:31 69° ESE 06:24:42 10° NE visible
31 Jan - 08:00:34 10° W 08:05:28 25° NW 08:10:30 10° N daylight
31 Jan - 13:29:58 10° N 13:34:09 18° NE 13:38:20 10° E daylight
31 Jan - 15:15:12 10° NNW 15:21:38 75° ENE 15:28:01 10° SE daylight
31 Jan - 17:03:03 10° WNW 17:07:19 19° WSW 17:11:33 10° SW daylight
01 Feb - 04:38:59 10° SE 04:42:18 15° ESE 04:45:40 10° ENE visible
01 Feb - 06:21:45 10° SSW 06:27:46 83° WNW 06:34:04 10° NNE visible
01 Feb - 08:11:00 10° W 08:15:09 18° NW 08:19:24 10° N daylight
01 Feb - 13:38:50 10° N 13:43:51 23° NE 13:48:52 10° E daylight
01 Feb - 15:24:30 10° NNW 15:30:56 78° WSW 15:37:18 10° SSE daylight
01 Feb - 17:14:06 10° W 17:16:14 12° W 17:18:23 10° WSW daylight
02 Feb - 04:46:38 10° SSE 04:51:16 24° ESE 04:56:01 10° NE visible
02 Feb - 06:31:10 10° SW 06:37:07 58° NW 06:43:18 10° NNE visible
02 Feb - 08:21:48 10° WNW 08:24:56 14° NNW 08:28:08 10° N daylight
02 Feb - 13:47:50 10° NNW 13:53:28 31° NE 13:59:06 10° ESE daylight
02 Feb - 15:33:56 10° NW 15:40:09 53° WSW 15:46:18 10° S daylight
03 Feb - 04:54:55 10° S 05:00:18 35° ESE 05:05:52 10° NE visible
03 Feb - 06:40:52 10° WSW 06:46:34 41° NW 06:52:28 10° NNE visible
03 Feb - 08:33:23 10° NW 08:34:49 11° NNW 08:36:15 10° NNW daylight
03 Feb - 12:12:50 10° N 12:14:48 11° NNE 12:16:48 10° NE daylight
03 Feb - 13:56:55 10° NNW 14:03:00 43° NE 14:09:03 10° ESE daylight
03 Feb - 15:43:30 10° NW 15:49:16 36° WSW 15:55:00 10° S daylight
04 Feb - 05:03:36 10° S 05:09:25 53° ESE 05:15:27 10° NE visible
04 Feb - 06:50:49 10° WSW 06:56:05 30° NW 07:01:32 10° NNE visible
04 Feb - 12:21:10 10° N 12:24:41 15° NE 12:28:10 10° ENE daylight
04 Feb - 14:06:05 10° NNW 14:12:26 60° NE 14:18:44 10° SE daylight
04 Feb - 15:53:20 10° NW 15:58:20 25° WSW 16:03:19 10° SSW daylight
05 Feb - 03:31:48 10° ESE 03:33:23 11° E 03:34:58 10° E visible
05 Feb - 05:12:36 10° SSW 05:18:37 78° ESE 05:24:52 10° NNE visible
05 Feb - 07:01:02 10° W 07:05:43 22° NW 07:10:31 10° N visible
05 Feb - 12:29:55 10° N 12:34:27 20° NE 12:38:57 10° E daylight
05 Feb - 14:15:19 10° NNW 14:21:47 85° ENE 14:28:11 10° SSE daylight
05 Feb - 16:03:38 10° WNW 16:07:19 16° WSW 16:11:01 10° SW daylight
